User: anonymous   Login
Location: Unspecified
(0.0000°N, 0.0000°E)
Time: 12:10:25
(UTC+01:00)
Language:

Ariane H10 - Orbit

View from above orbital plane
View from above orbital plane
View from above satellite
View from above satellite

Ground track
Ground track

The orbit data is extracted from the following two-line orbital elements,

1 19622U 88098B   17023.68711617  .00011156  00000-0  13498-2 0  9994
2 19622   3.6592 255.8990 6419168  69.3424 345.6783  3.45431706299333
Epoch (UTC): 23 January 2017 16:29:26
Eccentricity: 0.6419168
inclination: 3.6592°
perigee height: 241 km
apogee height: 23973 km
right ascension of ascending node: 255.8990°
argument of perigee: 69.3424°
revolutions per day: 3.45431706
mean anomaly at epoch: 345.6783°
orbit number at epoch: 29933

The dashed part of the orbit path shows where the satellite is in the earth's shadow,  

DLR